Find OneWeb SL0219

NORAD ID: 48223 Int'l Des: 2021-031 Owner: ONEWEBN Country: UK Constellation: oneweb operational
LEOCIRCULARPOLARONEWEB_TYPE

リアルタイム位置

3D地球を読み込み中...

OneWeb SL0219について

説明を読み込み中...

次回通過

Passes for default location (London). Set your location on the main map for personalized predictions.

高度履歴

Loading altitude history...

軌道要素

1 48223U 21031P 26124.98848183 .00000051 00000-0 10414-3 0 9999
2 48223 87.8921 298.3176 0001541 99.5650 260.5654 13.14502103242700
Epoch: May 4, 2026 • Age: 14 hours

現在のステータス

高度 1209.8 km
速度 7.25 km/s
衛星直下点 -6.88°S, 53.15°E
打ち上げ日 Apr 25, 2021
運用期間 5 years
タイプ internet

技術仕様

分類 Payload
質量 148.00 kg
乾燥質量 140.00 kg
総質量 148.00 kg
長さ 1.30 m
直径 1.00 m
スパン 5.00 m
形状 Trapezoid+2 pan
製造者 ONEWUS
バスタイプ ARROW
フェーズステータス In Orbit
所有者/国 ONEWEBN/UK

Most Searched